Location: Newark
(46.3297°N, 3.5931°E)
Time: 13:06:35
(UTC+00:00)

Envisat - Visible Passes

Search period start: 10 December 2019 00:00
Search period end: 20 December 2019 00:00
Orbit: 764 x 766 km, 98.1° (Epoch: 10 December)

Date Brightness Start Highest point End Pass type
(mag) Time Alt. Az. Time Alt. Az. Time Alt. Az.
10 Dec 3.9 06:21:01 10° NNE 06:26:02 56° E 06:31:00 10° S visible
10 Dec 3.0 17:38:03 10° SSE 17:43:08 88° WSW 17:48:16 10° NNW visible
10 Dec 6.1 19:21:08 10° WSW 19:22:54 12° W 19:24:41 10° WNW visible
11 Dec 5.3 05:44:45 10° NE 05:49:01 27° E 05:53:17 10° SSE visible
11 Dec 3.2 17:01:39 10° SE 17:06:27 45° ENE 17:11:18 10° N visible
11 Dec 5.2 18:41:32 10° SSW 18:45:42 25° W 18:49:51 10° NW visible
12 Dec 6.1 05:09:39 10° ENE 05:11:50 13° E 05:14:00 10° ESE visible
12 Dec 4.1 16:26:03 10° ESE 16:29:59 23° ENE 16:33:57 10° N visible
12 Dec 3.8 18:03:44 10° S 18:08:41 52° W 18:13:39 10° NNW visible
13 Dec 4.3 06:09:49 10° NNE 06:14:42 44° E 06:19:32 10° S visible
13 Dec 2.9 17:26:48 10° SSE 17:31:52 76° ENE 17:36:58 10° N visible
13 Dec 5.9 19:08:38 10° WSW 19:11:28 15° W 19:14:20 10° NW visible
14 Dec 5.6 05:33:46 10° NE 05:37:39 22° E 05:41:30 10° SE visible
14 Dec 3.5 16:50:38 10° SE 16:55:15 37° ENE 16:59:54 10° N visible
14 Dec 4.8 18:29:51 10° SSW 18:34:19 31° W 18:38:49 10° NNW visible
15 Dec 3.3 06:35:09 10° NNE 06:40:16 76° ESE 06:45:21 10° S visible
15 Dec 3.4 17:52:20 10° S 17:57:22 65° WSW 18:02:27 10° NNW visible
16 Dec 4.7 05:58:40 10° NNE 06:03:21 36° E 06:08:00 10° SSE visible
16 Dec 3.0 17:15:37 10° SSE 17:20:37 61° ENE 17:25:38 10° N visible
16 Dec 5.6 18:56:32 10° SW 19:00:03 19° W 19:03:35 10° NW visible
17 Dec 5.9 05:22:54 10° NE 05:26:14 17° E 05:29:34 10° SE visible
17 Dec 3.7 16:39:40 10° SE 16:44:03 30° ENE 16:48:27 10° N visible
17 Dec 4.4 18:18:15 10° SSW 18:22:58 38° W 18:27:43 10° NNW visible
18 Dec 3.7 06:23:55 10° NNE 06:28:58 61° E 06:33:59 10° S visible
18 Dec 3.1 17:40:59 10° SSE 17:46:04 81° WSW 17:51:12 10° NNW visible
18 Dec 6.2 19:24:51 10° W 19:25:54 11° W 19:26:57 10° WNW visible
19 Dec 5.1 05:47:35 10° NE 05:51:59 29° E 05:56:22 10° SSE visible
19 Dec 3.2 17:04:30 10° SE 17:09:22 49° ENE 17:14:17 10° N visible
19 Dec 5.3 18:44:40 10° SW 18:48:39 23° W 18:52:41 10° NW visible
